Warning: Javascript must be enabled to use all the features on this page!


Page Loading - Please Wait...

Click to hideNews Bulletins

Peak Streamflow for the Nation

USGS 04290500 WINOOSKI RIVER NEAR ESSEX JUNCTION, VT

Chittenden County, Vermont
Hydrologic Unit Code 04150403
Latitude  44°28'44", Longitude  73°08'21" NAD27
Drainage area 1,044  square miles
Gage datum 191.17 feet above NAVD88
Output formats
Table
Graph
Tab-separated file
peakfq (watstore) format
Reselect output format
Water
Year
Date Gage
Height
(feet)
Stream-
flow
(cfs)
1928 1927-11-04 50.40 113,0007
1929 1929-03-17 11.64 19,300
1930 1930-01-09 12.60 21,300
1931 1931-04-11 13.22 22,600
1932 1932-04-13 13.68 23,600
1933 1933-04-19 18.60 34,600
1934 1934-04-13 17.32 31,600
1935 1935-01-10 16.96 30,9006
1936 1936-03-19 23.54 45,3006
1937 1937-05-16 15.07 26,4006
1938 1938-09-22 18.72 34,3006
1939 1939-04-20 11.07 18,2006
1940 1940-05-03 13.38 22,8006
1941 1941-04-14 7.902 11,9006
1942 1942-04-16 13.15 22,4006
1943 1943-05-12 8.35 12,9006
1944 1943-11-09 11.00 18,0006
1945 1945-03-18 9.501 13,5006
1946 1946-03-10 12.80 21,6006
1947 1947-06-04 16.27 28,9006
1948 1948-03-22 10.08 16,2006
1949 1948-12-31 16.09 28,5006
1950 1950-04-05 10.28 16,6006
1951 1950-12-05 11.17 18,3006
1952 1952-06-02 14.16 24,9006
1953 1953-03-25 11.80 19,6006
1954 1954-04-09 9.09 14,6006
1955 1955-04-15 9.36 15,1006
1956 1956-05-28 9.85 15,9006
1957 1957-01-23 10.601 11,4006
1958 1958-04-22 13.03 22,1006
1959 1959-04-03 12.981 19,0006
1960 1959-11-28 14.00 24,1006
1961 1961-04-23 8.522 12,8006
1962 1962-04-08 11.83 19,2006
1963 1963-04-04 10.282 16,1006
1964 1964-03-06 14.691 17,5006
1965 1965-03-09 5.492,6 5,5806
1966 1966-03-25 8.032 10,3006
1967 1967-04-03 12.60 18,7006
1968 1968-03-22   19,6002,6
1969 1969-04-19 13.68 20,9006
1970 1970-04-25 13.52 20,5006
1971 1971-05-04 13.62 20,7006
1972 1972-05-05 16.87 27,4006
1973 1973-07-01 17.47 28,7006
1974 1973-12-22 14.77 23,0006
1975 1975-04-20 14.35 22,2006
1976 1976-04-02 17.09 27,9006
1977 1977-03-14 19.06 32,0006
1978 1977-10-17 14.06 21,6006
1979 1979-03-06 15.71 24,8006
1980 1979-11-27 8.79 11,7006
1981 1981-02-25 12.442 18,4006
1982 1982-04-18 18.28 30,3006
1983 1983-04-25 11.94 17,4006
1984 1983-12-14 13.93 21,3006
1985 1984-12-30 10.172 14,0006
1986 1986-03-31 13.40 20,2006
1987 1987-04-01 17.13 27,9006
1988 1988-04-29 11.57 16,7006
1989 1989-05-07 13.43 20,3006
1990 1990-04-11 13.08 19,6006
1991 1990-10-24 14.78 23,0006
1992 1992-03-27 14.43 22,3006
1993 1993-04-17 10.50 14,6006
1994 1994-04-17 15.59 24,7006
1995 1995-08-06 10.46 14,6006
1996 1996-01-20 17.09 27,8006
1997 1996-12-02 13.64 20,7006
1998 1998-01-09 16.06 25,7006
1999 1999-09-17 11.21 16,0006
2000 2000-05-11 14.38 22,2006
2001 2000-12-18 16.80 27,2006
2002 2002-04-14 13.23 19,9006
2003 2003-03-30 12.15 17,8006
2004 2003-11-20 14.23 21,9006
2005 2005-04-04 14.63 22,7006
2006 2006-05-20 16.34 26,2006
2007 2006-10-29 12.96 19,4006
2008 2008-04-13 10.87 15,3006
2009 2009-04-04 9.45 12,8006
2010 2010-03-24 14.55 22,6006
2011 2011-08-29 22.18 35,0006
2012 2012-03-09 9.781 9,6002,6
2013 2013-07-05 12.60 18,7006
2014 2014-04-16 16.54 26,6006
2015 2015-06-10 11.81 17,1006
2016 2016-02-26 13.00 19,5006
2017 2017-06-30 14.37 22,2006
2018 2018-01-13 22.031 15,5002,6
2019 2018-12-22 14.88 23,3006
2020 2019-11-01 16.69 27,0006
2021 2021-05-01 10.31 14,3006
?
  Peak Gage-Height Qualification Codes.
?
  Peak Streamflow Qualification Codes.